Regional Weather Roundup
Issued by NWS

Home | Current Version | Previous Version | Graphics & Text | Print | Product List | Glossary On
Versions: 1 2 3 4 5 6 7 8 9 10 11 12 13 14 15 16 17 18 19 20 21 22 23 24 25 26 27 28 29 30 31 32 33 34 35 36 37 38 39 40 41 42 43 44 45 46 47 48 49 50
000
ASUS45 KCYS 220610
RWRWY

WYOMING REGIONAL WEATHER ROUNDUP
NATIONAL WEATHER SERVICE CHEYENNE WY
1200 AM MDT MON SEP 22 2014

NOTE:  "FAIR" INDICATES FEW OR NO CLOUDS BELOW 12,000 FEET
WITH NO SIGNIFICANT WEATHER AND/OR OBSTRUCTIONS TO VISIBILITY.

WYZ001-220700-
YELLOWSTONE NATIONAL PARK

CITY           SKY/WX    TMP DP  RH WIND       PRES   REMARKS
LK YELLOWSTONE   N/A     52  43  71 W5        30.33S
6HR MIN TEMP:  50; 6HR MAX TEMP:  62;

W YELLOWSTONE  NOT AVBL

$$
WYZ002>013-054>058-071-098>099-220700-
NORTHERN WYOMING

CITY           SKY/WX    TMP DP  RH WIND       PRES   REMARKS
JACKSON        CLOUDY    54  54 100 S3        30.26S
CODY             N/A    N/A N/A N/A MISG        N/A
GREYBULL       MOCLDY    62  46  55 CALM      30.07F
6HR MIN TEMP:  61; 6HR MAX TEMP:  77; 6HR PCP: TRACE;

WORLAND        CLOUDY    67  43  41 SE7       30.08F
6HR MIN TEMP:  64; 6HR MAX TEMP:  77;

SHERIDAN       MOCLDY    61  44  53 SW6       30.08F
6HR MIN TEMP:  55; 6HR MAX TEMP:  75;

BUFFALO        MOCLDY    59  42  53 S10       30.17F
6HR MIN TEMP:  59; 6HR MAX TEMP:  71;

GILLETTE       PTCLDY    59  38  45 S18       30.16F
6HR MIN TEMP:  54; 6HR MAX TEMP:  73;

HULETT         FAIR      59  39  47 MISG      30.20
NEWCASTLE      FAIR      61  34  36 SE17G24   30.23

$$
WYZ014>020-022>026-101>103-220700-
CENTRAL WYOMING

CITY           SKY/WX    TMP DP  RH WIND       PRES   REMARKS
BIG PINEY      CLOUDY    52  50  93 E3        30.29F
6HR MIN TEMP:  52; 6HR MAX TEMP:  55; 6HR PCP:  0.01;

PINEDALE       CLOUDY    50  50 100 SW3       30.29F
DUBOIS         LGT RAIN  46  45  93 NW14      30.28F
LANDER         CLOUDY    62  45  53 S6        30.16F
6HR MIN TEMP:  60; 6HR MAX TEMP:  71;

RIVERTON       CLOUDY    63  39  41 W7        30.17F
6HR MIN TEMP:  63; 6HR MAX TEMP:  72;

CASPER         CLOUDY    56  41  57 CALM      30.19F
6HR MIN TEMP:  56; 6HR MAX TEMP:  73;

DOUGLAS        CLOUDY    59  41  51 SE16      30.22F
6HR MIN TEMP:  58; 6HR MAX TEMP:  71;


$$
WYZ021-027>030-104>119-220700-
SOUTHERN WYOMING

CITY           SKY/WX    TMP DP  RH WIND       PRES   REMARKS
EVANSTON       PTCLDY    47  45  93 SE6       30.29F
6HR MIN TEMP:  47; 6HR MAX TEMP:  53;

KEMMERER       FOG       48  46  93 CALM      30.30S VSB 1/2
FORT BRIDGER     N/A     47  47 100 W7        30.32S
ROCK SPRINGS   PTCLDY    51  49  92 W10       30.28R
6HR MIN TEMP:  51; 6HR MAX TEMP:  66; 6HR PCP:  0.03;

DIXON          FAIR      58  49  72 E12       30.30S
RAWLINS        CLOUDY    56  47  71 SW3       30.28F
6HR MIN TEMP:  56; 6HR MAX TEMP:  69;

SARATOGA       CLOUDY    55  45  67 SE7       30.32S
LARAMIE        MOCLDY    51  41  68 S13       30.32F
6HR MIN TEMP:  51; 6HR MAX TEMP:  60; 6HR PCP: TRACE;

CHEYENNE       MOCLDY    55  39  54 S14       30.32F
6HR MIN TEMP:  55; 6HR MAX TEMP:  66;

TORRINGTON     PTCLDY    57  41  55 E10       30.24F
6HR MIN TEMP:  56; 6HR MAX TEMP:  69;

PINE BLUFFS    FAIR      59  37  44 SE20G30   30.28S

$$



USA.gov is the U.S. government's official web portal to all federal, state and local government web resources and services.